Home   Weather   Västerås   Past weeks

Flag for Sweden Past Weather in Västerås, Sweden — Yesterday and Last 2 Weeks

Now
37 °F

Fog.


Feels Like: 30 °F
Forecast: 30 / 37 °F
Wind: 12 mph from Southwest

Location: Vasteras / Hasslo

Current Time: Jan 18, 2017 at 3:13:16 pm

Latest Report: Jan 18, 2017 at 2:20 pm


Visibility: 1 mi

Pressure: 30.27 "Hg

Humidity: 93%

Dew Point: 36 °F

Location of VästeråsLocation

Past Weather in Västerås — Graph

°F

Västerås Temperature Yesterday

Maximum temperature yesterday: 34 °F (at 7:50 pm)
Minimum temperature yesterday: 14 °F (at 12:50 am)
Average temperature yesterday: 26 °F

High & Low Weather Summary for the Past Weeks

 TemperatureHumidityPressure
High39 °F (Jan 9, 3:50 pm)100% (Jan 3, 11:20 pm)30.72 "Hg (Jan 3, 11:20 pm)
Low-15 °F (Jan 6, 1:20 am)61% (Jan 5, 2:20 pm)28.68 "Hg (Jan 12, 12:50 am)
Average26 °F84%29.85 "Hg
* Reported Jan 3 1:20 pm — Jan 18 1:50 pm, Västerås, Weather by CustomWeather, © 2017

Note: Actual official high and low records may vary slightly from our data, if they occured in-between our weather recording intervals... More about our weather records

Advertising

Västerås Weather History for the Previous 24 Hours

Scroll right to see more
 ConditionsComfort  
Time TempWeatherWind HumidityBarometerVisibility
1:50 pm
Wed, Jan 18
36 °FFog.12 mph100%30.27 "Hg2 mi
1:20 pm36 °FFog.12 mph100%30.27 "Hg2 mi
12:50 pm36 °FFog.9 mph93%30.27 "Hg1 mi
12:20 pm36 °FFog.7 mph93%30.27 "Hg1 mi
11:50 am34 °FFog.7 mph93%30.30 "Hg1 mi
11:20 am34 °FFog.8 mph93%30.33 "Hg2 mi
10:50 am34 °FFog.8 mph93%30.33 "Hg4 mi
10:20 am34 °FFog.7 mph93%30.33 "Hg4 mi
9:50 am34 °FFog.6 mph93%30.33 "Hg2 mi
9:20 am34 °FFog.7 mph93%30.33 "Hg4 mi
8:50 am34 °FPartly sunny.8 mph93%30.33 "Hg4 mi
8:20 am34 °FFog.7 mph93%30.33 "Hg6 mi
7:50 am34 °FLow clouds.7 mph93%30.33 "HgN/A
7:20 am34 °FLow clouds.7 mph93%30.33 "HgN/A
6:50 am34 °FLow clouds.6 mph93%30.33 "HgN/A
6:20 am34 °FLow clouds.6 mph93%30.33 "HgN/A
5:50 am34 °FLow clouds.5 mph93%30.33 "HgN/A
5:20 am34 °FLow clouds.6 mph93%30.33 "HgN/A
4:50 am34 °FLow clouds.6 mph93%30.33 "HgN/A
4:20 am34 °FLow clouds.6 mph93%30.36 "Hg5 mi
3:50 am34 °FFog.5 mph93%30.36 "Hg4 mi
3:20 am34 °FFog.5 mph93%30.36 "Hg3 mi
2:50 am34 °FFog.5 mph93%30.36 "Hg3 mi
2:20 am34 °FFog.5 mph93%30.36 "Hg3 mi
1:50 am34 °FFog.6 mph93%30.36 "Hg3 mi
1:20 am34 °FFog.7 mph93%30.36 "Hg1 mi
12:50 am34 °FFog.5 mph93%30.36 "Hg1 mi
12:20 am34 °FFog.7 mph93%30.36 "Hg5 mi
11:50 pm
Tue, Jan 17
34 °FLow clouds.8 mph93%30.36 "HgN/A
11:20 pm34 °FLow clouds.8 mph93%30.36 "HgN/A
10:50 pm34 °FLow clouds.9 mph87%30.36 "HgN/A
10:20 pm34 °FLow clouds.9 mph87%30.36 "HgN/A
9:50 pm34 °FLow clouds.8 mph87%30.36 "HgN/A
9:20 pm34 °FLow clouds.9 mph87%30.39 "HgN/A
8:50 pm34 °FLow clouds.10 mph87%30.36 "HgN/A
8:20 pm34 °FLow clouds.8 mph87%30.36 "HgN/A
7:50 pm34 °FDrizzle. Low clouds.10 mph87%30.39 "HgN/A
7:20 pm32 °FLow clouds.10 mph93%30.36 "HgN/A
6:50 pm32 °FLow clouds.9 mph93%30.39 "HgN/A
6:20 pm32 °FLow clouds.9 mph93%30.39 "HgN/A
5:50 pm32 °FLow clouds.10 mph87%30.39 "HgN/A
5:20 pm32 °FLow clouds.9 mph80%30.39 "HgN/A
4:50 pm32 °FOvercast.10 mph80%30.39 "HgN/A
4:20 pm32 °FOvercast.10 mph80%30.39 "HgN/A
3:50 pm30 °FOvercast.10 mph86%30.39 "HgN/A
3:20 pm30 °FPartly sunny.12 mph86%30.42 "HgN/A
Weather by CustomWeather, © 2017

See weather overviewHow to use our weather pages